Vorticity
17 18 18 19 19 20 20 19 19 18 17 16 16 15 15 15 15 15 15 14 13 12 12 10 9 8 8 7 8 9 10 11 12 13 14 14 14 14 15 17 18 20 21 21 21 21 21 22 22 24 26 28 30 32 32 31 30 29 29 28 27 25 22 20 17 15 14 12 12
17 18 20 20 21 21 21 21 20 19 18 16 16 16 16 15 15 15 14 13 12 11 10 9 8 8 8 9 10 11 12 12 12 11 11 10 10 10 11 13 14 17 19 21 22 22 23 24 24 25 26 26 27 29 30 29 29 29 29 29 28 28 26 25 22 20 18 18 17
17 18 20 21 22 22 22 22 21 20 19 18 17 16 16 15 14 14 13 12 12 11 10 9 9 9 9 11 11 12 12 12 11 10 9 8 8 9 10 12 13 14 15 17 19 21 22 24 25 26 27 29 29 30 30 29 28 28 29 28 28 28 28 28 25 24 23 24 24
14 16 18 20 21 22 22 23 23 22 20 19 18 17 15 14 13 13 12 12 11 10 9 9 9 10 10 11 11 11 11 11 10 9 9 9 9 10 11 12 12 12 13 13 15 16 18 19 21 22 24 26 29 31 32 31 30 29 29 28 27 27 28 29 27 26 25 25 24
11 13 14 16 18 20 21 22 22 21 21 20 18 16 14 13 12 12 11 11 10 10 10 9 9 9 9 10 10 10 10 10 10 10 10 10 10 11 12 12 12 12 11 11 10 10 11 12 13 15 16 18 22 25 29 32 32 32 31 29 27 26 27 28 27 27 26 26 24
8 9 10 12 14 15 17 18 18 19 19 18 17 15 14 13 12 11 11 10 11 10 10 8 8 8 8 8 8 9 9 9 9 9 9 10 10 11 12 12 12 12 11 10 9 8 7 7 7 8 9 11 13 16 20 25 29 32 32 31 29 27 26 26 27 27 27 26 21
5 6 7 8 9 10 12 13 14 15 15 15 14 14 13 13 12 11 11 11 10 9 8 8 7 7 7 7 8 8 9 9 8 8 8 9 9 10 11 12 12 12 12 10 9 7 6 5 6 6 7 8 9 10 12 16 22 27 30 32 31 29 28 27 27 27 27 27 23
3 3 4 4 5 6 7 8 10 10 11 12 12 12 12 12 11 11 11 10 9 9 8 7 7 7 7 7 7 7 8 8 8 8 8 7 8 9 10 11 12 12 12 11 9 8 6 5 6 7 8 10 11 11 11 12 16 21 25 30 32 31 30 29 27 26 26 28 27
2 2 2 2 3 3 4 5 6 7 8 8 9 10 10 10 10 10 10 9 9 9 8 7 7 6 6 6 6 6 7 8 8 8 8 7 7 8 9 10 12 13 13 12 10 8 6 5 5 6 9 12 14 15 15 14 15 17 21 25 29 31 31 30 28 25 24 26 30
3 3 2 2 2 2 2 3 4 4 5 6 7 7 8 8 8 8 9 9 9 9 8 8 7 7 6 6 6 6 7 7 8 8 8 8 8 8 8 10 11 12 13 13 11 9 6 4 4 5 8 11 16 18 20 19 18 17 18 21 25 28 29 30 28 26 25 27 34
3 3 3 3 2 2 2 2 3 3 4 4 5 5 6 6 7 7 7 8 8 8 8 8 7 7 6 6 6 6 6 7 8 8 9 8 8 8 8 9 10 11 12 12 11 9 7 4 3 4 6 10 15 20 23 24 22 20 18 19 22 25 27 29 29 28 28 29 34
4 4 4 4 4 3 3 3 3 3 4 4 4 5 5 5 5 6 6 7 7 7 7 7 7 7 6 6 5 5 6 6 7 8 9 9 9 9 8 8 9 10 11 12 11 9 7 4 3 3 6 9 14 20 23 25 24 22 19 18 20 23 25 29 31 32 33 32 32
6 5 5 5 4 4 4 4 4 4 4 5 5 5 5 5 5 5 6 6 6 6 6 6 6 6 6 6 5 5 5 6 6 8 9 10 10 10 9 9 9 9 10 11 11 10 8 6 4 4 5 9 14 18 22 25 24 22 20 19 20 22 26 30 35 39 40 35 23
7 7 6 6 6 5 5 5 5 5 6 6 6 6 5 5 5 5 5 5 5 5 5 5 5 6 6 5 5 5 5 5 6 7 8 10 10 10 10 10 9 9 10 10 10 10 9 8 6 5 6 9 14 18 21 23 23 22 20 19 21 24 29 33 41 45 42 28 12
9 8 8 7 7 6 6 6 6 6 6 6 6 6 6 6 6 6 6 6 5 5 5 5 4 4 5 5 5 5 5 5 6 7 8 9 10 11 11 11 10 10 10 10 10 11 11 10 8 7 7 9 14 18 22 23 23 22 21 20 22 27 34 40 47 44 34 14 6
10 10 9 9 8 8 7 7 7 7 7 7 7 7 7 7 7 7 7 6 6 6 5 5 4 4 4 4 4 4 5 5 6 6 8 9 10 11 12 12 11 10 10 9 10 11 12 13 11 9 8 9 14 20 24 27 26 25 23 22 25 33 41 49 48 38 25 14 17
12 12 11 10 10 9 9 8 8 8 8 8 8 8 8 8 8 8 8 7 7 7 6 6 5 5 4 4 4 5 5 5 6 6 8 9 10 11 12 13 12 11 10 9 10 12 13 14 13 11 9 8 13 20 26 30 31 29 27 24 30 40 49 54 45 36 32 36 38
15 14 14 13 12 12 11 10 10 10 9 9 9 9 9 9 9 9 9 9 8 8 7 7 6 6 6 5 5 5 5 6 6 7 8 9 10 11 12 13 12 11 10 9 10 12 13 15 14 12 9 8 13 19 27 32 34 32 30 28 37 48 54 50 40 40 47 54 47
18 17 17 16 15 14 14 13 12 12 11 11 10 10 10 10 10 10 10 10 10 9 9 8 8 8 7 6 6 6 6 6 7 8 8 9 10 11 12 13 13 12 11 10 10 12 14 15 14 12 10 8 12 19 27 33 35 34 32 33 44 52 51 38 32 40 50 51 36
20 20 19 18 18 17 16 16 15 14 14 13 13 12 12 12 11 11 11 11 10 10 10 10 9 9 9 8 8 7 7 7 8 8 9 9 10 11 12 13 13 12 11 10 11 12 14 16 15 12 10 9 12 19 27 33 34 34 35 39 49 50 41 23 20 28 36 34 19
22 22 21 20 20 19 18 18 17 16 16 15 15 14 14 14 13 13 12 12 11 11 11 11 10 10 10 10 10 9 9 9 9 9 9 10 10 11 12 12 12 12 12 12 12 13 15 16 15 13 11 10 13 19 26 31 32 33 36 42 48 43 30 9 6 11 19 22 13
24 23 23 22 22 21 20 20 19 18 17 17 16 16 15 15 15 14 14 13 13 12 12 12 12 12 12 12 12 11 11 10 10 10 10 10 10 10 11 12 12 13 13 12 12 13 15 17 16 14 12 11 13 18 24 28 29 32 36 41 41 34 21 2 -5 -2 8 18 16
25 24 24 24 24 23 22 22 21 20 19 18 18 17 16 16 15 15 15 15 14 14 14 13 13 13 13 14 13 13 13 12 12 12 11 10 10 10 10 11 12 13 13 13 12 13 14 16 15 14 12 12 13 16 20 24 27 30 34 37 34 28 18 3 -7 -6 3 15 16
23 24 24 24 24 24 24 24 23 22 22 21 20 18 18 16 16 16 16 16 15 15 15 15 15 15 15 15 15 14 14 14 13 13 12 11 10 10 10 11 12 12 12 12 12 13 14 16 14 12 12 12 13 14 16 19 24 29 32 33 28 24 19 9 -2 -4 3 13 14
19 20 21 22 23 23 24 24 24 24 23 23 22 21 20 19 18 16 16 16 16 15 15 15 16 16 16 16 16 15 15 15 14 13 13 12 11 10 10 10 11 12 12 12 12 13 15 16 13 11 10 11 12 13 13 15 19 24 28 29 25 23 21 14 3 1 5 14 14
14 15 17 18 19 20 21 22 23 23 24 24 24 23 23 22 20 19 17 16 16 15 15 15 15 16 16 16 16 15 15 15 15 14 13 12 11 10 10 10 11 11 11 12 12 13 14 15 14 12 10 10 11 12 11 12 15 18 21 23 24 25 24 17 6 4 8 16 17
12 13 14 15 16 17 18 19 20 21 22 23 23 24 24 23 23 22 20 18 17 16 15 14 15 15 15 15 15 15 15 15 15 15 14 12 11 10 10 10 10 10 10 11 12 13 13 14 13 12 10 9 11 12 12 10 12 11 12 14 21 26 27 21 7 2 5 14 19
13 14 14 14 15 16 16 17 17 18 19 20 21 22 23 23 23 23 22 21 19 17 16 15 14 14 14 14 15 15 15 15 15 15 14 13 12 11 10 10 9 9 10 11 12 12 12 12 13 13 11 10 12 13 14 12 11 7 4 3 11 21 27 24 8 -1 -3 4 12
15 16 16 16 16 16 17 17 17 17 18 18 19 20 21 22 23 23 23 23 22 20 18 16 14 13 12 13 13 14 14 14 15 15 14 13 12 11 10 9 8 8 8 10 11 12 11 12 13 14 13 11 12 14 16 16 13 7 1 -4 0 9 17 20 8 -4 -11 -10 -1
17 17 17 17 18 18 18 18 18 18 18 18 18 18 19 20 21 22 23 24 23 23 21 19 16 14 12 11 12 12 13 14 14 14 14 14 12 11 10 9 9 8 8 10 11 11 11 11 13 14 14 12 13 15 18 20 17 10 3 -4 -4 1 7 13 5 -5 -13 -14 -9
17 17 18 18 18 19 19 20 20 20 19 19 18 18 18 19 19 20 22 23 24 24 23 22 19 16 13 11 11 11 12 13 13 14 14 14 13 12 11 10 9 9 9 10 10 10 9 10 12 14 14 14 14 15 18 21 21 15 7 -2 -5 -4 0 5 2 -2 -6 -6 -4
17 18 18 18 19 20 20 21 21 21 21 21 20 20 19 19 19 20 20 21 23 24 24 24 23 20 17 13 11 10 11 12 13 13 14 14 13 12 11 10 10 10 9 10 10 8 7 8 11 13 15 15 15 16 18 21 23 20 13 2 -5 -7 -6 -3 -2 -1 0 3 4
17 17 18 19 19 20 21 22 22 23 23 23 23 22 22 21 20 20 20 21 22 23 24 25 25 24 21 17 13 11 10 11 12 13 13 13 13 12 12 11 10 10 10 10 9 8 7 7 10 12 15 15 15 16 18 21 24 24 19 10 -1 -7 -9 -8 -6 -4 -0 3 6
17 18 18 19 20 20 21 22 23 23 24 24 25 24 24 23 23 22 21 21 21 22 23 25 26 26 25 22 17 13 10 10 11 12 13 13 13 13 12 11 11 10 10 11 10 9 7 6 9 12 14 15 14 15 16 20 24 25 24 17 6 -2 -8 -10 -9 -6 -3 1 4
18 18 19 19 20 21 22 22 23 24 24 25 25 26 26 26 25 24 23 22 22 22 23 24 25 26 27 27 23 18 13 9 10 11 12 13 13 13 12 12 11 11 11 11 10 9 7 6 8 11 13 15 14 13 14 16 21 24 26 23 14 6 -2 -6 -8 -7 -6 -2 1
18 19 19 20 20 21 22 22 23 23 24 25 25 26 26 26 26 26 25 24 23 23 23 23 24 25 27 28 27 23 18 12 10 10 11 12 12 13 12 12 12 11 11 11 11 10 8 6 7 10 12 14 13 12 11 12 16 20 24 25 20 13 6 0 -3 -5 -5 -4 -1
17 18 19 20 20 21 21 22 22 23 23 24 25 25 26 26 27 27 26 25 25 24 24 23 23 24 26 28 29 27 23 17 12 10 10 11 12 12 12 12 12 12 11 11 11 10 9 7 6 8 11 14 13 11 9 8 10 14 18 22 22 18 13 8 4 1 -0 -0 1
17 18 19 19 20 20 21 21 22 22 22 23 24 24 25 26 26 27 27 26 26 25 24 24 24 24 25 26 28 29 28 23 17 12 9 9 11 12 12 12 12 12 11 11 12 11 10 8 6 7 10 12 13 12 10 7 6 7 9 14 17 18 17 14 11 9 7 6 6
16 17 18 18 19 20 20 21 21 21 22 22 23 23 24 25 25 26 26 27 26 26 25 25 24 24 24 25 27 29 29 28 23 16 11 8 9 10 12 12 12 12 12 11 11 12 11 9 7 7 8 10 12 12 11 8 5 3 2 4 8 11 13 14 13 13 12 12 11
15 16 17 18 18 19 20 20 20 21 21 21 22 22 23 24 25 25 26 26 26 26 26 25 25 24 24 25 26 28 30 30 27 22 16 10 8 9 10 12 12 12 12 11 11 11 12 11 9 7 7 8 11 12 12 10 7 3 1 -0 1 3 6 8 9 11 12 13 13
15 16 16 17 18 18 19 19 20 20 20 21 21 21 22 23 24 24 25 25 26 26 26 25 25 25 25 24 25 27 28 30 29 26 21 14 10 8 9 11 12 12 12 12 11 11 11 12 10 8 6 6 8 10 12 12 10 7 4 2 0 1 2 4 6 8 10 11 12
Height
5508 5505 5503 5502 5500 5498 5497 5496 5494 5493 5493 5492 5491 5491 5490 5490 5490 5490 5490 5491 5491 5491 5492 5492 5493 5493 5494 5494 5494 5494 5495 5495 5495 5496 5496 5496 5496 5496 5496 5496 5496 5497 5497 5497 5497 5498 5498 5498 5499 5500 5502 5503 5504 5506 5507 5508 5510 5511 5513 5515 5518 5520 5523 5527 5530 5533 5535 5538 5541
5506 5504 5502 5500 5498 5496 5495 5494 5493 5492 5491 5490 5489 5488 5488 5488 5488 5488 5488 5488 5488 5488 5488 5489 5489 5490 5490 5490 5491 5491 5491 5491 5492 5492 5492 5492 5492 5492 5493 5493 5493 5493 5493 5493 5493 5493 5493 5494 5494 5495 5496 5497 5498 5500 5501 5502 5503 5504 5506 5508 5510 5513 5516 5519 5522 5525 5528 5530 5533
5505 5503 5500 5498 5496 5495 5493 5492 5491 5490 5489 5488 5487 5486 5486 5485 5485 5485 5485 5485 5485 5485 5486 5486 5487 5487 5487 5487 5488 5488 5488 5488 5488 5489 5489 5489 5488 5488 5488 5488 5488 5488 5488 5488 5488 5489 5489 5489 5490 5491 5491 5492 5493 5494 5495 5495 5496 5498 5499 5501 5503 5505 5508 5512 5515 5517 5519 5523 5526
5504 5502 5499 5497 5495 5493 5492 5491 5489 5488 5487 5486 5485 5485 5484 5483 5483 5483 5483 5483 5483 5483 5483 5483 5484 5484 5484 5484 5484 5484 5485 5485 5485 5485 5485 5485 5485 5485 5485 5484 5484 5484 5484 5484 5484 5484 5484 5485 5486 5486 5487 5487 5488 5488 5489 5489 5490 5491 5493 5494 5496 5499 5502 5505 5507 5509 5512 5515 5518
5503 5501 5498 5496 5494 5492 5491 5489 5488 5487 5486 5485 5484 5483 5483 5482 5481 5481 5481 5481 5481 5481 5481 5481 5481 5481 5481 5481 5481 5481 5481 5482 5482 5482 5482 5482 5481 5481 5481 5481 5480 5480 5480 5480 5480 5480 5480 5481 5481 5482 5482 5483 5483 5483 5483 5483 5484 5485 5486 5488 5490 5493 5496 5498 5499 5502 5505 5508 5512
5502 5500 5497 5495 5493 5491 5489 5488 5487 5485 5484 5483 5483 5482 5481 5480 5480 5479 5479 5479 5478 5478 5478 5478 5478 5478 5478 5478 5478 5478 5478 5478 5478 5478 5478 5478 5478 5477 5477 5477 5476 5476 5476 5476 5476 5476 5476 5477 5477 5478 5478 5478 5478 5478 5478 5478 5479 5479 5481 5482 5484 5487 5489 5491 5493 5495 5498 5501 5507
5500 5498 5496 5494 5492 5490 5488 5487 5486 5484 5483 5482 5481 5480 5479 5479 5478 5478 5477 5477 5476 5476 5476 5476 5476 5475 5475 5475 5475 5475 5475 5475 5475 5475 5475 5474 5474 5474 5473 5473 5473 5472 5472 5472 5472 5472 5472 5473 5473 5473 5473 5474 5474 5473 5473 5473 5473 5474 5475 5477 5478 5480 5482 5484 5486 5488 5491 5495 5501
5499 5497 5495 5493 5491 5489 5488 5486 5484 5483 5482 5481 5480 5479 5478 5477 5476 5476 5475 5475 5474 5474 5473 5473 5473 5473 5473 5473 5472 5472 5472 5472 5471 5471 5471 5471 5471 5470 5470 5469 5469 5468 5468 5468 5468 5468 5468 5468 5468 5468 5469 5469 5469 5468 5468 5468 5468 5469 5470 5471 5472 5473 5475 5477 5479 5481 5484 5489 5494
5497 5495 5493 5492 5490 5488 5486 5485 5483 5482 5481 5480 5478 5477 5476 5475 5474 5474 5473 5473 5472 5472 5471 5471 5470 5470 5470 5469 5469 5469 5469 5468 5468 5468 5468 5468 5467 5467 5466 5466 5465 5465 5464 5464 5464 5463 5463 5463 5464 5464 5464 5464 5464 5463 5463 5463 5463 5464 5464 5465 5466 5468 5469 5471 5472 5474 5478 5482 5487
5495 5493 5492 5490 5488 5486 5485 5483 5482 5480 5479 5478 5477 5475 5474 5473 5472 5471 5471 5470 5470 5469 5468 5468 5468 5467 5467 5467 5466 5466 5465 5465 5465 5465 5464 5464 5463 5463 5463 5462 5462 5461 5461 5460 5460 5459 5459 5459 5460 5459 5459 5459 5459 5458 5458 5458 5458 5458 5459 5460 5461 5462 5463 5464 5466 5469 5472 5475 5479
5493 5491 5489 5488 5486 5484 5483 5481 5479 5478 5477 5475 5474 5473 5472 5471 5470 5469 5468 5468 5467 5466 5466 5465 5465 5464 5464 5463 5463 5462 5462 5462 5461 5461 5461 5460 5460 5459 5459 5458 5458 5458 5457 5456 5456 5455 5455 5455 5456 5456 5455 5455 5454 5453 5453 5453 5453 5453 5453 5454 5455 5455 5456 5458 5460 5463 5466 5468 5470
5489 5488 5486 5484 5483 5481 5480 5478 5477 5475 5474 5473 5472 5470 5469 5468 5467 5466 5465 5464 5464 5463 5463 5462 5461 5461 5461 5460 5459 5459 5458 5458 5458 5457 5457 5456 5456 5455 5455 5454 5454 5453 5453 5452 5452 5451 5451 5451 5451 5452 5451 5451 5450 5449 5448 5448 5448 5447 5448 5448 5449 5450 5451 5453 5455 5458 5460 5462 5463
5486 5484 5483 5481 5479 5478 5477 5475 5473 5472 5471 5469 5468 5467 5466 5465 5464 5463 5462 5462 5461 5460 5459 5459 5458 5457 5457 5457 5456 5455 5455 5454 5454 5453 5453 5452 5452 5451 5451 5450 5450 5449 5448 5448 5448 5447 5447 5447 5447 5447 5447 5446 5445 5444 5443 5443 5443 5442 5443 5443 5444 5445 5445 5447 5450 5453 5455 5456 5457
5482 5481 5479 5477 5476 5474 5473 5471 5470 5468 5467 5466 5465 5464 5463 5462 5461 5460 5459 5458 5458 5457 5456 5455 5454 5454 5453 5453 5452 5452 5451 5451 5450 5449 5449 5448 5448 5447 5446 5446 5446 5445 5444 5444 5443 5443 5443 5443 5443 5442 5442 5442 5441 5440 5439 5438 5438 5438 5438 5438 5439 5439 5440 5442 5446 5449 5450 5451 5452
5478 5477 5475 5473 5472 5470 5468 5467 5466 5464 5463 5462 5461 5460 5459 5458 5457 5456 5455 5454 5454 5453 5453 5452 5451 5450 5449 5449 5448 5448 5447 5447 5446 5445 5445 5444 5444 5443 5443 5442 5442 5441 5440 5440 5439 5438 5438 5438 5438 5438 5437 5437 5436 5436 5435 5434 5433 5433 5433 5433 5434 5434 5435 5437 5440 5443 5445 5446 5449
5474 5473 5471 5469 5467 5466 5464 5463 5461 5460 5458 5457 5456 5455 5454 5453 5453 5452 5451 5451 5450 5449 5448 5448 5447 5446 5445 5445 5444 5443 5443 5443 5442 5442 5441 5440 5440 5439 5438 5438 5438 5437 5436 5436 5435 5434 5433 5433 5433 5433 5433 5432 5432 5431 5430 5429 5429 5428 5428 5428 5429 5430 5431 5433 5434 5437 5440 5443 5446
5470 5468 5466 5465 5463 5461 5460 5458 5457 5455 5454 5453 5452 5451 5450 5449 5448 5448 5447 5446 5446 5445 5444 5444 5443 5443 5442 5441 5440 5439 5439 5438 5438 5438 5437 5436 5436 5435 5434 5434 5433 5433 5433 5432 5431 5430 5429 5429 5428 5428 5428 5428 5427 5426 5426 5425 5424 5423 5424 5424 5425 5426 5427 5428 5429 5432 5436 5440 5443
5466 5464 5462 5460 5458 5457 5455 5454 5452 5451 5449 5448 5447 5446 5445 5444 5443 5443 5442 5442 5441 5441 5440 5439 5439 5438 5437 5437 5436 5435 5435 5434 5434 5433 5433 5432 5432 5431 5430 5430 5429 5429 5428 5428 5427 5426 5425 5425 5424 5424 5423 5423 5423 5422 5421 5420 5419 5419 5419 5420 5421 5422 5423 5424 5426 5428 5433 5437 5441
5461 5459 5457 5455 5453 5452 5450 5449 5448 5446 5445 5443 5442 5441 5440 5439 5438 5438 5437 5437 5436 5436 5435 5435 5434 5434 5433 5432 5432 5431 5430 5430 5430 5429 5429 5428 5428 5427 5426 5426 5425 5425 5425 5424 5423 5423 5422 5421 5420 5420 5419 5419 5418 5418 5417 5416 5415 5415 5415 5416 5418 5419 5421 5422 5424 5427 5430 5435 5440
5456 5454 5452 5450 5448 5447 5445 5444 5443 5441 5440 5438 5437 5436 5435 5434 5433 5433 5432 5432 5432 5431 5431 5430 5430 5429 5428 5428 5427 5426 5426 5426 5425 5425 5424 5424 5423 5423 5422 5422 5422 5421 5421 5421 5420 5419 5418 5418 5417 5416 5415 5415 5414 5414 5413 5413 5412 5411 5412 5413 5414 5417 5418 5420 5423 5426 5430 5435 5441
5451 5449 5447 5445 5443 5442 5440 5438 5437 5436 5435 5433 5432 5431 5430 5429 5428 5428 5427 5427 5427 5426 5425 5425 5425 5425 5424 5423 5423 5422 5422 5421 5421 5421 5420 5420 5419 5418 5418 5418 5418 5418 5418 5417 5417 5416 5415 5414 5413 5413 5412 5411 5411 5410 5410 5409 5408 5408 5408 5410 5412 5414 5416 5418 5422 5425 5430 5435 5441
5446 5444 5442 5440 5438 5436 5435 5433 5432 5430 5429 5428 5427 5426 5425 5424 5423 5423 5422 5421 5421 5421 5420 5420 5420 5420 5419 5418 5418 5417 5417 5417 5417 5416 5416 5416 5415 5414 5414 5414 5414 5414 5414 5413 5413 5413 5412 5411 5410 5409 5408 5408 5408 5407 5407 5406 5405 5405 5406 5407 5409 5411 5413 5416 5420 5425 5429 5433 5437
5442 5440 5437 5435 5433 5431 5430 5428 5426 5425 5423 5422 5421 5420 5419 5418 5418 5417 5417 5416 5416 5416 5415 5415 5415 5415 5414 5414 5413 5413 5413 5412 5412 5412 5412 5411 5411 5410 5410 5410 5410 5410 5410 5410 5410 5409 5408 5407 5407 5406 5406 5405 5405 5404 5404 5403 5403 5403 5403 5405 5406 5408 5410 5414 5418 5423 5427 5431 5434
5438 5436 5433 5431 5429 5427 5425 5423 5421 5419 5418 5417 5416 5414 5414 5413 5413 5412 5411 5411 5410 5410 5410 5410 5410 5410 5409 5409 5408 5408 5408 5408 5408 5408 5408 5407 5407 5406 5406 5406 5406 5407 5407 5406 5407 5407 5405 5404 5404 5403 5403 5402 5402 5402 5401 5401 5401 5402 5402 5403 5404 5406 5408 5411 5415 5419 5423 5426 5429
5435 5432 5429 5427 5425 5423 5420 5418 5417 5415 5413 5412 5410 5409 5408 5408 5407 5407 5406 5406 5405 5405 5405 5405 5405 5405 5404 5404 5403 5403 5403 5403 5403 5403 5403 5403 5403 5403 5402 5402 5402 5403 5403 5402 5404 5404 5402 5402 5401 5401 5401 5400 5400 5399 5399 5399 5400 5400 5401 5402 5403 5405 5407 5409 5413 5416 5418 5421 5423
5432 5429 5426 5424 5421 5419 5416 5414 5412 5410 5408 5407 5405 5404 5403 5402 5402 5401 5401 5400 5400 5400 5400 5400 5400 5400 5399 5399 5398 5398 5398 5398 5398 5399 5399 5399 5398 5398 5398 5398 5398 5398 5399 5399 5401 5401 5400 5400 5398 5398 5398 5398 5398 5398 5398 5398 5398 5399 5400 5401 5403 5404 5406 5408 5411 5414 5416 5418 5419
5429 5426 5423 5420 5418 5415 5413 5410 5408 5406 5404 5402 5401 5399 5398 5397 5396 5396 5395 5395 5394 5394 5395 5395 5396 5395 5395 5394 5393 5393 5393 5393 5394 5394 5394 5394 5394 5394 5394 5393 5394 5394 5395 5397 5397 5397 5397 5397 5396 5396 5396 5396 5396 5396 5396 5396 5397 5398 5399 5400 5402 5403 5405 5408 5410 5413 5414 5415 5416
5426 5423 5420 5417 5414 5411 5408 5406 5404 5402 5399 5398 5396 5395 5393 5392 5391 5390 5390 5389 5389 5389 5390 5390 5391 5391 5390 5389 5389 5389 5389 5389 5389 5389 5390 5390 5390 5390 5390 5390 5389 5389 5391 5393 5393 5394 5394 5393 5393 5393 5393 5393 5393 5394 5394 5394 5395 5396 5397 5398 5400 5401 5403 5406 5408 5410 5412 5412 5413
5422 5419 5416 5413 5410 5408 5405 5402 5399 5397 5395 5393 5392 5390 5388 5387 5386 5385 5384 5384 5383 5384 5384 5385 5386 5386 5386 5385 5385 5384 5384 5384 5384 5385 5385 5386 5386 5386 5386 5385 5385 5385 5387 5388 5390 5391 5391 5390 5390 5390 5391 5391 5391 5391 5392 5392 5393 5393 5394 5395 5396 5398 5400 5402 5404 5406 5408 5408 5409
5419 5416 5413 5409 5407 5403 5401 5398 5395 5393 5391 5388 5387 5385 5384 5383 5381 5380 5379 5378 5378 5378 5378 5379 5380 5381 5381 5381 5380 5380 5379 5379 5379 5380 5381 5381 5381 5381 5381 5381 5381 5382 5382 5384 5387 5388 5389 5388 5388 5388 5388 5388 5388 5389 5389 5390 5390 5391 5392 5393 5393 5395 5396 5398 5400 5402 5404 5405 5406
5415 5412 5409 5406 5403 5400 5397 5394 5391 5388 5386 5384 5383 5381 5379 5378 5377 5376 5374 5374 5373 5373 5373 5374 5374 5375 5376 5376 5376 5376 5375 5375 5375 5375 5376 5376 5377 5377 5377 5377 5378 5378 5379 5382 5384 5385 5385 5385 5384 5384 5384 5385 5385 5386 5387 5387 5388 5389 5389 5390 5391 5392 5393 5395 5398 5399 5401 5402 5403
5412 5409 5406 5403 5399 5396 5393 5390 5387 5385 5382 5380 5378 5376 5375 5373 5372 5371 5369 5369 5368 5368 5368 5368 5369 5370 5370 5371 5371 5372 5371 5371 5371 5371 5371 5372 5372 5373 5373 5373 5374 5375 5376 5378 5380 5380 5380 5382 5381 5381 5381 5382 5382 5383 5384 5385 5385 5386 5387 5388 5388 5389 5390 5392 5394 5396 5397 5398 5399
5409 5406 5403 5400 5396 5393 5390 5387 5384 5381 5378 5376 5374 5372 5370 5369 5368 5366 5365 5364 5363 5363 5363 5363 5364 5364 5365 5366 5367 5367 5367 5367 5366 5366 5367 5367 5368 5368 5369 5369 5370 5371 5372 5373 5375 5375 5376 5378 5378 5378 5378 5378 5379 5380 5381 5382 5383 5384 5385 5385 5386 5387 5388 5389 5391 5392 5394 5395 5396
5407 5403 5400 5397 5393 5390 5387 5383 5381 5378 5375 5373 5370 5368 5366 5364 5363 5362 5360 5359 5358 5358 5358 5358 5358 5359 5360 5361 5362 5362 5363 5362 5362 5362 5362 5363 5363 5364 5364 5365 5366 5367 5368 5369 5370 5372 5373 5374 5375 5375 5375 5375 5376 5377 5378 5378 5380 5381 5382 5383 5384 5384 5385 5386 5388 5389 5390 5392 5393
5404 5401 5398 5394 5390 5387 5383 5380 5377 5374 5372 5369 5367 5365 5363 5361 5359 5358 5356 5355 5354 5353 5353 5353 5353 5354 5354 5355 5356 5357 5358 5358 5358 5358 5358 5358 5359 5359 5360 5361 5362 5363 5364 5365 5366 5368 5370 5370 5371 5371 5372 5372 5373 5374 5374 5375 5376 5378 5379 5380 5382 5382 5383 5384 5385 5386 5388 5388 5389
5402 5398 5395 5391 5388 5384 5380 5377 5374 5371 5368 5366 5364 5361 5359 5357 5355 5354 5352 5351 5350 5349 5348 5348 5348 5349 5349 5350 5351 5352 5353 5353 5354 5354 5354 5354 5354 5355 5355 5356 5357 5358 5360 5361 5362 5364 5366 5368 5367 5367 5368 5369 5370 5371 5371 5372 5373 5374 5376 5378 5379 5380 5381 5382 5383 5384 5385 5386 5387
5399 5395 5392 5388 5385 5381 5378 5374 5371 5368 5366 5363 5360 5358 5356 5353 5352 5350 5349 5348 5346 5345 5344 5344 5344 5344 5344 5345 5346 5347 5348 5349 5350 5350 5350 5350 5351 5351 5351 5352 5353 5354 5355 5357 5358 5359 5361 5364 5363 5364 5366 5366 5367 5368 5369 5369 5370 5371 5373 5374 5376 5378 5379 5380 5381 5382 5382 5383 5384
5396 5393 5389 5386 5382 5378 5375 5371 5368 5365 5363 5360 5358 5355 5353 5350 5348 5347 5345 5344 5343 5342 5341 5340 5340 5339 5340 5340 5341 5342 5343 5344 5345 5346 5347 5347 5347 5347 5347 5348 5348 5349 5351 5353 5354 5355 5357 5358 5360 5361 5363 5363 5364 5365 5366 5367 5368 5369 5370 5371 5373 5374 5376 5377 5378 5379 5380 5381 5382
5394 5390 5386 5383 5379 5376 5372 5369 5365 5363 5360 5357 5355 5352 5350 5348 5346 5344 5342 5341 5339 5338 5337 5337 5336 5336 5336 5336 5337 5337 5338 5340 5341 5342 5343 5343 5343 5343 5343 5344 5344 5345 5346 5348 5350 5351 5353 5354 5357 5358 5358 5360 5361 5362 5363 5364 5365 5366 5367 5368 5370 5371 5372 5374 5375 5376 5377 5378 5379
5391 5387 5383 5380 5377 5373 5370 5366 5363 5360 5357 5354 5352 5349 5347 5345 5343 5341 5339 5338 5336 5335 5334 5333 5333 5332 5332 5332 5332 5333 5334 5335 5336 5338 5338 5339 5339 5339 5340 5340 5340 5341 5342 5343 5345 5347 5349 5350 5353 5353 5353 5356 5358 5359 5360 5361 5362 5363 5364 5366 5367 5368 5369 5370 5372 5373 5373 5374 5375
5388 5385 5381 5378 5374 5371 5367 5364 5361 5357 5354 5352 5349 5347 5344 5342 5340 5338 5336 5335 5333 5332 5331 5330 5329 5329 5328 5328 5328 5329 5329 5330 5331 5332 5333 5334 5335 5335 5335 5336 5336 5337 5338 5339 5341 5343 5344 5346 5349 5349 5349 5352 5354 5356 5357 5358 5359 5360 5361 5363 5364 5365 5366 5367 5368 5369 5370 5371 5371